• In United Kingdom
  • List of Countries
  • For 7 days
  • Water Temperature
  • Satellite Maps
  • Weather Map
  • Weather Widgets
  • user-avatar
    Login

    Hourly Weather Yulara

    Today, 25 November, Saturday

    Time Temperature Precipitation Wind Pressure Humidity
    00:00 +33°C° 0 mm 7 mps 715 mmHg 24%
    01:00 +32°C° 0 mm 7 mps 714 mmHg 26%
    02:00 +32°C° 0 mm 7 mps 714 mmHg 27%
    03:00 +29°C° 0 mm 7 mps 714 mmHg 28%
    04:00 +29°C° 0 mm 7 mps 714 mmHg 29%
    05:00 +29°C° 0 mm 7 mps 714 mmHg 30%
    06:00 +28°C° 0 mm 7 mps 715 mmHg 31%
    07:00 +30°C° 0 mm 7 mps 715 mmHg 29%
    08:00 +33°C° 0 mm 8 mps 715 mmHg 27%
    09:00 +35°C° 0 mm 8 mps 715 mmHg 28%
    10:00 +36°C° 0 mm 7 mps 715 mmHg 26%
    11:00 +39°C° 0 mm 7 mps 715 mmHg 24%
    12:00 +40°C° 0 mm 6 mps 714 mmHg 23%
    13:00 +40°C° 0 mm 5 mps 714 mmHg 23%
    14:00 +40°C° 0 mm 5 mps 713 mmHg 23%
    15:00 +38°C° 0 mm 4 mps 713 mmHg 23%
    16:00 +35°C° 4.3 mm 6 mps 713 mmHg 33%
    17:00 +32°C° 4.3 mm 9 mps 712 mmHg 44%
    18:00 +28°C° 4.3 mm 11 mps 712 mmHg 54%
    19:00 +28°C° 1.4 mm 9 mps 713 mmHg 51%
    20:00 +29°C° 1.4 mm 7 mps 714 mmHg 48%
    21:00 +29°C° 1.4 mm 4 mps 714 mmHg 46%
    22:00 +29°C° 0 mm 4 mps 714 mmHg 47%
    23:00 +28°C° 0 mm 3 mps 714 mmHg 49%

    Tomorrow, 26 November, Sunday

    Time Temperature Precipitation Wind Pressure Humidity
    00:00 +28°C° 0 mm 2 mps 714 mmHg 50%
    01:00 +28°C° 0 mm 3 mps 714 mmHg 54%
    02:00 +27°C° 0 mm 4 mps 714 mmHg 57%
    03:00 +26°C° 0 mm 4 mps 714 mmHg 60%
    04:00 +26°C° 0 mm 4 mps 714 mmHg 63%
    05:00 +26°C° 0 mm 4 mps 714 mmHg 65%
    06:00 +26°C° 0 mm 3 mps 714 mmHg 68%
    07:00 +27°C° 0 mm 3 mps 714 mmHg 61%
    08:00 +28°C° 0 mm 3 mps 715 mmHg 55%
    09:00 +30°C° 0 mm 2 mps 715 mmHg 48%
    10:00 +31°C° 0 mm 2 mps 715 mmHg 43%
    11:00 +33°C° 0 mm 1 mps 714 mmHg 37%
    12:00 +32°C° 0 mm 0 mps 714 mmHg 32%
    13:00 +35°C° 0 mm 1 mps 714 mmHg 29%
    14:00 +37°C° 0 mm 2 mps 713 mmHg 25%
    15:00 +38°C° 0 mm 2 mps 713 mmHg 22%
    16:00 +37°C° 0 mm 3 mps 713 mmHg 22%
    17:00 +37°C° 0 mm 4 mps 713 mmHg 23%
    18:00 +37°C° 0 mm 5 mps 713 mmHg 23%
    19:00 +36°C° 0 mm 5 mps 713 mmHg 25%
    20:00 +35°C° 0 mm 4 mps 713 mmHg 27%
    21:00 +34°C° 0 mm 3 mps 714 mmHg 28%
    22:00 +34°C° 0.2 mm 4 mps 714 mmHg 30%
    23:00 +33°C° 0.2 mm 5 mps 713 mmHg 32%

    Day after tomorrow, 27 November, Monday

    Time Temperature Precipitation Wind Pressure Humidity
    00:00 +33°C° 0.2 mm 6 mps 713 mmHg 34%
    01:00 +32°C° 0.2 mm 6 mps 713 mmHg 38%
    02:00 +30°C° 0.2 mm 5 mps 713 mmHg 42%
    03:00 +29°C° 0.2 mm 5 mps 713 mmHg 46%
    04:00 +29°C° 0.1 mm 4 mps 713 mmHg 49%
    05:00 +28°C° 0.1 mm 3 mps 713 mmHg 51%
    06:00 +28°C° 0.1 mm 3 mps 714 mmHg 54%
    07:00 +29°C° 0 mm 3 mps 714 mmHg 49%
    08:00 +31°C° 0 mm 3 mps 714 mmHg 44%
    09:00 +33°C° 0 mm 3 mps 715 mmHg 39%
    10:00 +34°C° 0 mm 3 mps 714 mmHg 35%
    11:00 +35°C° 0 mm 2 mps 714 mmHg 31%
    12:00 +37°C° 0 mm 2 mps 713 mmHg 27%
    13:00 +36°C° 0 mm 1 mps 713 mmHg 24%
    14:00 +37°C° 0 mm 1 mps 712 mmHg 21%
    15:00 +36°C° 0 mm 0 mps 711 mmHg 18%
    16:00 +39°C° 0 mm 1 mps 711 mmHg 18%
    17:00 +39°C° 0 mm 2 mps 712 mmHg 18%
    18:00 +39°C° 0 mm 3 mps 712 mmHg 17%
    19:00 +37°C° 0 mm 5 mps 712 mmHg 22%
    20:00 +36°C° 0 mm 7 mps 712 mmHg 28%
    21:00 +35°C° 0 mm 9 mps 713 mmHg 33%
    22:00 +34°C° 0 mm 8 mps 713 mmHg 39%
    23:00 +33°C° 0 mm 8 mps 713 mmHg 44%

    28 November, Tuesday

    Time Temperature Precipitation Wind Pressure Humidity
    00:00 +31°C° 0 mm 8 mps 712 mmHg 50%
    01:00 +31°C° 0 mm 8 mps 712 mmHg 51%
    02:00 +30°C° 0 mm 7 mps 712 mmHg 52%
    03:00 +29°C° 0 mm 7 mps 712 mmHg 53%
    04:00 +29°C° 0 mm 6 mps 713 mmHg 53%
    05:00 +29°C° 0 mm 6 mps 713 mmHg 53%
    06:00 +29°C° 0 mm 5 mps 713 mmHg 53%
    07:00 +30°C° 0 mm 5 mps 714 mmHg 50%
    08:00 +32°C° 0 mm 4 mps 714 mmHg 47%
    09:00 +33°C° 0 mm 4 mps 714 mmHg 44%
    10:00 +35°C° 0 mm 4 mps 714 mmHg 39%
    11:00 +36°C° 0 mm 3 mps 714 mmHg 35%
    12:00 +38°C° 0 mm 3 mps 713 mmHg 30%
    13:00 +38°C° 0 mm 3 mps 713 mmHg 28%
    14:00 +39°C° 0 mm 3 mps 712 mmHg 26%
    15:00 +39°C° 0 mm 3 mps 712 mmHg 24%
    16:00 +40°C° 0.1 mm 4 mps 712 mmHg 25%
    17:00 +39°C° 0.1 mm 5 mps 712 mmHg 26%
    18:00 +39°C° 0.1 mm 5 mps 712 mmHg 27%
    19:00 +36°C° 1.8 mm 5 mps 713 mmHg 34%
    20:00 +34°C° 1.8 mm 5 mps 713 mmHg 41%
    21:00 +32°C° 1.8 mm 5 mps 714 mmHg 48%
    22:00 +32°C° 0.4 mm 5 mps 714 mmHg 49%
    23:00 +32°C° 0.4 mm 4 mps 714 mmHg 50%

    29 November, Wednesday

    Time Temperature Precipitation Wind Pressure Humidity
    00:00 +30°C° 0.4 mm 3 mps 714 mmHg 51%
    01:00 +30°C° 0 mm 4 mps 714 mmHg 53%
    02:00 +29°C° 0 mm 5 mps 714 mmHg 55%
    03:00 +29°C° 0 mm 5 mps 714 mmHg 57%
    04:00 +29°C° 0 mm 5 mps 714 mmHg 60%
    05:00 +28°C° 0 mm 5 mps 714 mmHg 62%
    06:00 +28°C° 0 mm 5 mps 714 mmHg 64%
    07:00 +30°C° 0 mm 5 mps 715 mmHg 57%
    08:00 +33°C° 0 mm 4 mps 715 mmHg 50%
    09:00 +34°C° 0 mm 4 mps 715 mmHg 42%
    10:00 +36°C° 0 mm 4 mps 715 mmHg 37%
    11:00 +37°C° 0 mm 4 mps 714 mmHg 32%
    12:00 +39°C° 0 mm 3 mps 714 mmHg 27%
    13:00 +39°C° 0 mm 3 mps 713 mmHg 25%
    14:00 +40°C° 0 mm 2 mps 713 mmHg 22%
    15:00 +40°C° 0 mm 1 mps 712 mmHg 20%
    16:00 +40°C° 0 mm 2 mps 713 mmHg 21%
    17:00 +40°C° 0 mm 3 mps 713 mmHg 21%
    18:00 +40°C° 0 mm 3 mps 713 mmHg 21%
    19:00 +37°C° 0.6 mm 5 mps 713 mmHg 30%
    20:00 +34°C° 0.6 mm 7 mps 714 mmHg 38%
    21:00 +32°C° 0.6 mm 9 mps 714 mmHg 47%
    22:00 +32°C° 1.1 mm 7 mps 714 mmHg 48%
    23:00 +30°C° 1.1 mm 6 mps 714 mmHg 49%

    30 November, Thursday

    Time Temperature Precipitation Wind Pressure Humidity
    00:00 +30°C° 1.1 mm 5 mps 714 mmHg 50%
    01:00 +30°C° 0.1 mm 5 mps 714 mmHg 50%
    02:00 +30°C° 0.1 mm 6 mps 714 mmHg 51%
    03:00 +29°C° 0.1 mm 6 mps 714 mmHg 51%
    04:00 +29°C° 0.7 mm 6 mps 714 mmHg 55%
    05:00 +28°C° 0.7 mm 5 mps 714 mmHg 59%
    06:00 +27°C° 0.7 mm 4 mps 714 mmHg 63%
    07:00 +28°C° 0.6 mm 4 mps 715 mmHg 60%
    08:00 +29°C° 0.6 mm 4 mps 715 mmHg 57%
    09:00 +29°C° 0.6 mm 5 mps 715 mmHg 54%
    10:00 +32°C° 0.1 mm 5 mps 715 mmHg 48%
    11:00 +34°C° 0.1 mm 5 mps 714 mmHg 42%
    12:00 +36°C° 0.1 mm 5 mps 714 mmHg 37%
    13:00 +37°C° 0 mm 5 mps 713 mmHg 34%
    14:00 +38°C° 0 mm 4 mps 713 mmHg 31%
    15:00 +39°C° 0 mm 3 mps 712 mmHg 28%
    16:00 +40°C° 0 mm 4 mps 711 mmHg 27%
    17:00 +40°C° 0 mm 5 mps 711 mmHg 27%
    18:00 +40°C° 0 mm 6 mps 711 mmHg 26%
    19:00 +38°C° 0.8 mm 6 mps 711 mmHg 30%
    20:00 +36°C° 0.8 mm 6 mps 712 mmHg 35%
    21:00 +35°C° 0.8 mm 6 mps 713 mmHg 39%
    22:00 +32°C° 5.7 mm 8 mps 713 mmHg 53%
    23:00 +28°C° 5.7 mm 10 mps 713 mmHg 66%
    Show more